EZY87VV LGSK-EGKK

Flight info

Callsign EZY87VV
Flight time N/A
Altitude 38000
Route IBIDI UL617 TSL UN130 TALAS DCT ENFAR DCT MSR DCT PEVAL DCT LAMPO DCT GUNGO DCT SAFFA DCT ELMUR DCT RIPUS DCT DITON DCT HOC DCT LUL DCT RLP DCT ROTSI DCT KOTUN DCT NINAL DCT KESAX DCT KUNAV
Aircraft A20N/M-SDE2E3FGHIJ1RWXYZ/LB1G1

Departure

Time N/A
Airport Skiathos Island National Airport (LGSK)

Arrival

Time 2026-05-05 14:35
Airport London Gatwick Airport (EGKK)
Time Latitude Longitude Altitude Speed Heading
2026-05-05 11:23 39.67619 23.37605 17751 ft 339 kts 340°
2026-05-05 11:23 39.69821 23.36532 18357 ft 342 kts 340°
2026-05-05 11:23 39.72073 23.35435 18973 ft 343 kts 340°
2026-05-05 11:23 39.74290 23.34352 19580 ft 345 kts 340°
2026-05-05 11:24 39.76541 23.33250 20166 ft 346 kts 339°
2026-05-05 11:24 39.78803 23.32142 20747 ft 348 kts 339°
2026-05-05 11:24 39.81049 23.31044 21324 ft 349 kts 339°
2026-05-05 11:24 39.83337 23.29924 21878 ft 350 kts 339°
2026-05-05 11:25 39.85603 23.28815 22402 ft 352 kts 339°
2026-05-05 11:25 39.87909 23.27684 22931 ft 354 kts 339°
2026-05-05 11:25 39.90191 23.26565 23438 ft 355 kts 339°
2026-05-05 11:25 39.92513 23.25422 23922 ft 357 kts 339°
2026-05-05 11:26 39.94861 23.24263 24370 ft 360 kts 339°
2026-05-05 11:26 39.97188 23.23117 24818 ft 362 kts 339°
2026-05-05 11:26 39.99559 23.21951 25266 ft 364 kts 339°
2026-05-05 11:26 40.01920 23.20789 25689 ft 366 kts 339°
2026-05-05 11:27 40.04322 23.19608 26118 ft 367 kts 338°
2026-05-05 11:27 40.06707 23.18434 26511 ft 369 kts 339°
2026-05-05 11:27 40.09098 23.17254 26879 ft 371 kts 338°
2026-05-05 11:27 40.11533 23.16053 27251 ft 374 kts 339°
2026-05-05 11:28 40.13980 23.14847 27625 ft 376 kts 338°
2026-05-05 11:28 40.16444 23.13629 27989 ft 378 kts 338°
2026-05-05 11:28 40.18882 23.12423 28335 ft 380 kts 338°
2026-05-05 11:28 40.21373 23.11190 28673 ft 382 kts 338°
2026-05-05 11:29 40.23867 23.09955 29005 ft 384 kts 338°
2026-05-05 11:29 40.26347 23.08726 29329 ft 386 kts 338°
2026-05-05 11:29 40.28861 23.07479 29666 ft 387 kts 338°
2026-05-05 11:29 40.31383 23.06229 30074 ft 387 kts 338°
2026-05-05 11:30 40.33897 23.04979 30521 ft 385 kts 338°
2026-05-05 11:30 40.36393 23.03737 30959 ft 384 kts 338°
2026-05-05 11:30 40.38872 23.02438 31363 ft 382 kts 335°
2026-05-05 11:30 40.41224 23.00904 31740 ft 381 kts 330°
2026-05-05 11:31 40.43498 22.99094 32122 ft 380 kts 326°
2026-05-05 11:31 40.45639 22.97048 32507 ft 378 kts 322°
2026-05-05 11:31 40.47609 22.94816 32807 ft 379 kts 317°
2026-05-05 11:31 40.49464 22.92331 33060 ft 381 kts 313°
2026-05-05 11:32 40.51170 22.89639 33285 ft 383 kts 310°
2026-05-05 11:32 40.52791 22.86907 33548 ft 384 kts 309°
2026-05-05 11:32 40.54425 22.84121 33809 ft 384 kts 310°
2026-05-05 11:32 40.56057 22.81331 34012 ft 385 kts 309°
2026-05-05 11:33 40.57690 22.78535 34030 ft 386 kts 309°
2026-05-05 11:33 40.60949 22.72945 34038 ft 385 kts 309°
2026-05-05 11:34 40.64198 22.67362 34035 ft 385 kts 309°
2026-05-05 11:34 40.67439 22.61784 34038 ft 385 kts 309°
2026-05-05 11:35 40.70673 22.56205 34041 ft 384 kts 309°
2026-05-05 11:35 40.73924 22.50594 34039 ft 384 kts 309°
2026-05-05 11:36 40.77139 22.45028 34040 ft 384 kts 309°
2026-05-05 11:36 40.80354 22.39440 34048 ft 383 kts 309°
2026-05-05 11:37 40.83584 22.33819 34067 ft 382 kts 309°
2026-05-05 11:37 40.86784 22.28217 34085 ft 382 kts 309°
2026-05-05 11:38 40.89979 22.22633 34102 ft 383 kts 309°
2026-05-05 11:38 40.93199 22.17009 34101 ft 381 kts 309°
2026-05-05 11:39 40.96377 22.11449 34093 ft 380 kts 309°
2026-05-05 11:39 40.99565 22.05870 34086 ft 380 kts 309°
2026-05-05 11:40 41.02755 22.00275 34069 ft 381 kts 309°
2026-05-05 11:40 41.05927 21.94696 34081 ft 381 kts 309°
2026-05-05 11:41 41.09021 21.88959 34099 ft 381 kts 306°
2026-05-05 11:41 41.12008 21.83123 34124 ft 380 kts 306°
2026-05-05 11:42 41.14977 21.77340 34127 ft 380 kts 306°
2026-05-05 11:42 41.17925 21.71570 34128 ft 381 kts 306°
2026-05-05 11:43 41.20900 21.65720 34125 ft 381 kts 306°
2026-05-05 11:43 41.23834 21.59935 34134 ft 380 kts 306°
2026-05-05 11:44 41.26783 21.54115 34123 ft 379 kts 306°
2026-05-05 11:44 41.29724 21.48293 34123 ft 378 kts 306°
2026-05-05 11:45 41.32661 21.42469 34121 ft 378 kts 306°
2026-05-05 11:45 41.35563 21.36702 34125 ft 377 kts 306°
2026-05-05 11:46 41.38472 21.30900 34134 ft 375 kts 305°
2026-05-05 11:46 41.41348 21.25139 34126 ft 374 kts 305°
2026-05-05 11:47 41.44241 21.19355 34130 ft 374 kts 305°
2026-05-05 11:47 41.47106 21.13623 34134 ft 371 kts 305°
2026-05-05 11:48 41.51379 21.05042 34133 ft 371 kts 305°
2026-05-05 11:48 41.54214 20.99339 34134 ft 369 kts 305°
2026-05-05 11:49 41.57050 20.93627 34135 ft 368 kts 304°
2026-05-05 11:49 41.59875 20.87933 34140 ft 368 kts 305°
2026-05-05 11:50 41.62691 20.82239 34143 ft 369 kts 305°
2026-05-05 11:50 41.65511 20.76538 34147 ft 368 kts 304°
2026-05-05 11:51 41.68319 20.70834 34146 ft 368 kts 304°
2026-05-05 11:51 41.71123 20.65133 34149 ft 367 kts 304°
2026-05-05 11:52 41.73925 20.59427 34148 ft 366 kts 304°
2026-05-05 11:52 41.76754 20.53755 34144 ft 367 kts 305°
2026-05-05 11:53 41.79834 20.48325 34141 ft 366 kts 308°
2026-05-05 11:53 41.82948 20.42955 34143 ft 366 kts 307°
2026-05-05 11:54 41.86059 20.37596 34143 ft 366 kts 307°
2026-05-05 11:54 41.89183 20.32179 34140 ft 367 kts 307°
2026-05-05 11:55 41.92287 20.26786 34139 ft 368 kts 307°
2026-05-05 11:55 41.95409 20.21362 34136 ft 367 kts 306°
2026-05-05 11:56 41.98515 20.15964 34137 ft 366 kts 307°
2026-05-05 11:56 42.01631 20.10543 34132 ft 366 kts 306°
2026-05-05 11:57 42.04735 20.05128 34131 ft 367 kts 307°
2026-05-05 11:57 42.07845 19.99702 34125 ft 367 kts 306°
2026-05-05 11:58 42.10983 19.94217 34122 ft 368 kts 307°
2026-05-05 11:58 42.14105 19.88790 34122 ft 368 kts 306°
2026-05-05 11:59 42.17229 19.83332 34124 ft 370 kts 306°
2026-05-05 11:59 42.20356 19.77847 34124 ft 370 kts 306°
2026-05-05 12:00 42.23486 19.72332 34130 ft 369 kts 306°
2026-05-05 12:00 42.26601 19.66841 34135 ft 370 kts 306°
2026-05-05 12:01 42.29723 19.61318 34136 ft 370 kts 305°
2026-05-05 12:01 42.32829 19.55818 34138 ft 369 kts 305°
2026-05-05 12:02 42.35928 19.50320 34138 ft 370 kts 305°
2026-05-05 12:02 42.39048 19.44770 34139 ft 371 kts 305°
2026-05-05 12:03 42.42147 19.39252 34140 ft 371 kts 305°
2026-05-05 12:03 42.45270 19.33673 34133 ft 370 kts 304°
2026-05-05 12:04 42.48360 19.28127 34118 ft 371 kts 304°
2026-05-05 12:04 42.51444 19.22584 34107 ft 370 kts 304°
2026-05-05 12:05 42.54562 19.16985 34124 ft 373 kts 304°
2026-05-05 12:05 42.57681 19.11379 34140 ft 373 kts 304°
2026-05-05 12:06 42.60773 19.05803 34148 ft 372 kts 304°
2026-05-05 12:06 42.63898 19.00163 34153 ft 372 kts 304°
2026-05-05 12:07 42.66996 18.94559 34139 ft 374 kts 304°
2026-05-05 12:07 42.70118 18.88901 34136 ft 377 kts 304°
2026-05-05 12:08 42.73266 18.83189 34135 ft 377 kts 303°
2026-05-05 12:08 42.76413 18.77473 34134 ft 377 kts 303°
2026-05-05 12:09 42.79543 18.71764 34136 ft 377 kts 303°
2026-05-05 12:09 42.82669 18.66056 34134 ft 378 kts 303°
2026-05-05 12:10 42.85796 18.60336 34133 ft 378 kts 303°
2026-05-05 12:10 42.88953 18.54550 34129 ft 380 kts 303°
2026-05-05 12:11 42.92094 18.48781 34135 ft 380 kts 303°
2026-05-05 12:11 42.95227 18.43016 34125 ft 381 kts 303°
2026-05-05 12:12 42.98381 18.37205 34123 ft 383 kts 302°
2026-05-05 12:12 43.01549 18.31337 34122 ft 385 kts 302°
2026-05-05 12:13 43.04710 18.25465 34123 ft 385 kts 302°
2026-05-05 12:13 43.07880 18.19580 34117 ft 386 kts 302°
2026-05-05 12:14 43.11102 18.13605 34113 ft 388 kts 302°
2026-05-05 12:14 43.14300 18.07704 34119 ft 389 kts 302°
2026-05-05 12:15 43.17518 18.01724 34108 ft 391 kts 302°
2026-05-05 12:15 43.20736 17.95714 34113 ft 392 kts 302°
2026-05-05 12:16 43.23963 17.89672 34110 ft 393 kts 302°
2026-05-05 12:16 43.27109 17.83570 34104 ft 393 kts 300°
2026-05-05 12:17 43.30130 17.77279 34092 ft 396 kts 300°
2026-05-05 12:17 43.33141 17.70988 34087 ft 397 kts 300°
2026-05-05 12:18 43.36181 17.64624 34082 ft 398 kts 300°
2026-05-05 12:18 43.39203 17.58288 34086 ft 400 kts 300°
2026-05-05 12:19 43.42269 17.51848 34099 ft 402 kts 300°
2026-05-05 12:19 43.45316 17.45436 34096 ft 403 kts 300°
2026-05-05 12:20 43.48368 17.38998 34096 ft 403 kts 300°
2026-05-05 12:20 43.51382 17.32618 34094 ft 405 kts 300°
2026-05-05 12:21 43.54452 17.26087 34086 ft 407 kts 300°
2026-05-05 12:21 43.57525 17.19546 34095 ft 408 kts 300°
2026-05-05 12:22 43.60602 17.12990 34091 ft 409 kts 300°
2026-05-05 12:22 43.63676 17.06431 34095 ft 410 kts 300°
2026-05-05 12:23 43.66771 16.99816 34094 ft 411 kts 300°
2026-05-05 12:23 43.69876 16.93163 34097 ft 412 kts 300°
2026-05-05 12:24 43.72955 16.86551 34091 ft 412 kts 300°
2026-05-05 12:24 43.76046 16.79901 34091 ft 412 kts 300°
2026-05-05 12:25 43.79131 16.73243 34082 ft 413 kts 300°
2026-05-05 12:25 43.82216 16.66573 34086 ft 414 kts 300°
2026-05-05 12:26 43.85326 16.59833 34089 ft 415 kts 300°
2026-05-05 12:26 43.88425 16.53101 34088 ft 415 kts 300°
2026-05-05 12:27 43.91511 16.46380 34091 ft 416 kts 300°
2026-05-05 12:27 43.94610 16.39619 34084 ft 416 kts 300°
2026-05-05 12:28 43.97688 16.32881 34084 ft 416 kts 300°
2026-05-05 12:28 44.00775 16.26087 34080 ft 416 kts 300°
2026-05-05 12:29 44.03852 16.19308 34084 ft 416 kts 300°
2026-05-05 12:29 44.06939 16.12502 34076 ft 416 kts 300°
2026-05-05 12:30 44.10014 16.05710 34076 ft 416 kts 300°
2026-05-05 12:30 44.13132 15.98861 34068 ft 418 kts 300°
2026-05-05 12:31 44.16243 15.92007 34074 ft 418 kts 300°
2026-05-05 12:31 44.19331 15.85156 34057 ft 418 kts 300°
2026-05-05 12:32 44.22414 15.78292 34060 ft 417 kts 300°
2026-05-05 12:32 44.25469 15.71468 34065 ft 417 kts 300°
2026-05-05 12:33 44.28540 15.64593 34059 ft 417 kts 300°
2026-05-05 12:33 44.31594 15.57737 34050 ft 417 kts 300°
2026-05-05 12:34 44.34631 15.50903 34051 ft 417 kts 300°
2026-05-05 12:34 44.37673 15.44039 34052 ft 417 kts 300°
2026-05-05 12:35 44.40734 15.37118 34051 ft 418 kts 300°
2026-05-05 12:35 44.43780 15.30197 34046 ft 418 kts 299°
2026-05-05 12:36 44.46820 15.23268 34046 ft 418 kts 299°
2026-05-05 12:36 44.49838 15.16386 34045 ft 418 kts 299°
2026-05-05 12:37 44.52890 15.09416 34040 ft 418 kts 299°
2026-05-05 12:37 44.55930 15.02459 34323 ft 421 kts 299°
2026-05-05 12:38 44.57460 14.98949 34671 ft 418 kts 299°
2026-05-05 12:38 44.58970 14.95482 34984 ft 415 kts 299°
2026-05-05 12:38 44.60468 14.92042 35207 ft 414 kts 299°
2026-05-05 12:38 44.61950 14.88630 35442 ft 413 kts 299°
2026-05-05 12:39 44.63441 14.85193 35678 ft 412 kts 299°
2026-05-05 12:39 44.64929 14.81760 35869 ft 412 kts 299°
2026-05-05 12:39 44.66407 14.78344 36010 ft 411 kts 299°
2026-05-05 12:39 44.67891 14.74916 36015 ft 410 kts 299°
2026-05-05 12:40 44.70828 14.68113 36017 ft 410 kts 299°
2026-05-05 12:40 44.73790 14.61232 36011 ft 411 kts 299°
2026-05-05 12:41 44.76734 14.54382 36010 ft 410 kts 299°
2026-05-05 12:41 44.79660 14.47554 36010 ft 411 kts 299°
2026-05-05 12:42 44.82601 14.40675 36010 ft 411 kts 299°
2026-05-05 12:42 44.85540 14.33781 36015 ft 411 kts 298°
2026-05-05 12:43 44.88464 14.26886 36006 ft 411 kts 298°
2026-05-05 12:43 44.91379 14.20003 36009 ft 411 kts 298°
2026-05-05 12:44 44.94305 14.13089 36014 ft 410 kts 298°
2026-05-05 12:44 44.97213 14.06202 36015 ft 411 kts 298°
2026-05-05 12:45 45.00137 13.99263 36017 ft 411 kts 298°
2026-05-05 12:45 45.03053 13.92329 36022 ft 411 kts 298°
2026-05-05 12:46 45.05967 13.85382 36016 ft 411 kts 298°
2026-05-05 12:46 45.08876 13.78431 36023 ft 411 kts 298°
2026-05-05 12:47 45.11788 13.71481 36017 ft 410 kts 298°
2026-05-05 12:47 45.14680 13.64593 36017 ft 410 kts 298°
2026-05-05 12:48 45.17571 13.57650 36012 ft 409 kts 298°
2026-05-05 12:48 45.20451 13.50704 36001 ft 409 kts 298°
2026-05-05 12:49 45.23308 13.43795 36002 ft 409 kts 298°
2026-05-05 12:49 45.26182 13.36822 36007 ft 409 kts 298°
2026-05-05 12:50 45.29039 13.29855 36007 ft 409 kts 297°
2026-05-05 12:50 45.32062 13.23029 36001 ft 409 kts 302°
2026-05-05 12:51 45.35433 13.16537 36004 ft 410 kts 304°
2026-05-05 12:51 45.38845 13.10054 36003 ft 409 kts 304°
2026-05-05 12:52 45.42237 13.03596 35992 ft 409 kts 303°
2026-05-05 12:52 45.45642 12.97093 35990 ft 408 kts 303°
2026-05-05 12:53 45.49020 12.90622 35991 ft 408 kts 303°
2026-05-05 12:53 45.52403 12.84136 35988 ft 409 kts 303°
2026-05-05 12:54 45.57468 12.74386 35993 ft 410 kts 303°
2026-05-05 12:55 45.60843 12.67872 35991 ft 410 kts 303°
2026-05-05 12:55 45.64224 12.61333 35997 ft 410 kts 303°
2026-05-05 12:56 45.67615 12.54757 36001 ft 409 kts 303°
2026-05-05 12:56 45.70965 12.48246 35997 ft 409 kts 303°
2026-05-05 12:57 45.74330 12.41691 36001 ft 410 kts 303°
2026-05-05 12:57 45.77716 12.35080 36001 ft 411 kts 303°
2026-05-05 12:58 45.81072 12.28491 35998 ft 411 kts 302°
2026-05-05 12:58 45.84440 12.21866 36000 ft 411 kts 302°
2026-05-05 12:59 45.87812 12.15231 35999 ft 412 kts 302°
2026-05-05 12:59 45.91175 12.08603 36009 ft 413 kts 302°
2026-05-05 13:00 45.96212 11.98656 35995 ft 411 kts 302°
2026-05-05 13:01 46.02940 11.85313 35988 ft 412 kts 302°
2026-05-05 13:01 46.06291 11.78650 35974 ft 412 kts 302°
2026-05-05 13:02 46.09635 11.71977 35970 ft 413 kts 302°
2026-05-05 13:02 46.12987 11.65267 35977 ft 414 kts 302°
2026-05-05 13:03 46.16326 11.58528 35982 ft 414 kts 302°
2026-05-05 13:03 46.19670 11.51756 35979 ft 414 kts 301°
2026-05-05 13:04 46.23007 11.44981 35975 ft 414 kts 301°
2026-05-05 13:04 46.26310 11.38254 35981 ft 414 kts 301°
2026-05-05 13:05 46.29651 11.31422 35985 ft 414 kts 301°
2026-05-05 13:05 46.32946 11.24659 35974 ft 414 kts 301°
2026-05-05 13:06 46.36272 11.17835 35980 ft 414 kts 300°
2026-05-05 13:06 46.39599 11.10995 35978 ft 414 kts 300°
2026-05-05 13:07 46.42886 11.04221 35986 ft 414 kts 301°
2026-05-05 13:07 46.46216 10.97381 35987 ft 415 kts 301°
2026-05-05 13:08 46.49550 10.90528 35986 ft 416 kts 300°
2026-05-05 13:08 46.52876 10.83677 35983 ft 416 kts 300°
2026-05-05 13:09 46.56182 10.76851 35977 ft 417 kts 300°
2026-05-05 13:09 46.59509 10.69966 35972 ft 417 kts 300°
2026-05-05 13:10 46.62829 10.63081 35977 ft 417 kts 300°
2026-05-05 13:10 46.66153 10.56171 35968 ft 418 kts 300°
2026-05-05 13:11 46.69481 10.49230 35961 ft 419 kts 300°
2026-05-05 13:11 46.72655 10.42204 35953 ft 416 kts 295°
2026-05-05 13:12 46.75285 10.34760 35952 ft 413 kts 289°
2026-05-05 13:12 46.77525 10.27025 35948 ft 412 kts 288°
2026-05-05 13:13 46.79728 10.19306 35935 ft 414 kts 287°
2026-05-05 13:13 46.81936 10.11576 35927 ft 414 kts 288°
2026-05-05 13:14 46.84141 10.03844 35935 ft 414 kts 287°
2026-05-05 13:14 46.86359 9.96045 35937 ft 414 kts 287°
2026-05-05 13:15 46.88547 9.88326 35940 ft 415 kts 287°
2026-05-05 13:15 46.90747 9.80545 35952 ft 415 kts 287°
2026-05-05 13:16 46.92944 9.72751 35946 ft 416 kts 287°
2026-05-05 13:16 46.95125 9.64987 35943 ft 416 kts 287°
2026-05-05 13:17 46.97320 9.57150 35942 ft 416 kts 287°
2026-05-05 13:17 46.99506 9.49318 35918 ft 417 kts 287°
2026-05-05 13:18 47.01695 9.41449 35923 ft 418 kts 287°
2026-05-05 13:18 47.03890 9.33537 35925 ft 419 kts 287°
2026-05-05 13:19 47.06071 9.25629 35915 ft 418 kts 287°
2026-05-05 13:19 47.08243 9.17746 35899 ft 418 kts 287°
2026-05-05 13:20 47.10403 9.09893 35884 ft 419 kts 287°
2026-05-05 13:20 47.12603 9.01973 35890 ft 419 kts 287°
2026-05-05 13:21 47.14789 8.93996 35903 ft 419 kts 287°
2026-05-05 13:21 47.16895 8.86060 35911 ft 419 kts 285°
2026-05-05 13:22 47.18866 8.78269 35905 ft 420 kts 285°
2026-05-05 13:22 47.20906 8.70217 35899 ft 421 kts 285°
2026-05-05 13:23 47.22955 8.62131 35877 ft 421 kts 285°
2026-05-05 13:23 47.24994 8.54058 35895 ft 421 kts 285°
2026-05-05 13:24 47.27018 8.46026 35891 ft 423 kts 285°
2026-05-05 13:24 47.29066 8.37889 35879 ft 424 kts 285°
2026-05-05 13:25 47.31104 8.29745 35894 ft 423 kts 285°
2026-05-05 13:25 47.33119 8.21606 35886 ft 424 kts 285°
2026-05-05 13:26 47.35126 8.13498 35891 ft 424 kts 285°
2026-05-05 13:26 47.37135 8.05366 35888 ft 425 kts 285°
2026-05-05 13:27 47.39156 7.97162 35902 ft 426 kts 285°
2026-05-05 13:27 47.41175 7.88942 35892 ft 426 kts 285°
2026-05-05 13:28 47.43183 7.80744 35887 ft 426 kts 285°
2026-05-05 13:28 47.45188 7.72510 35895 ft 426 kts 285°
2026-05-05 13:29 47.47008 7.64238 35885 ft 425 kts 280°
2026-05-05 13:29 47.48440 7.55767 35875 ft 425 kts 279°
2026-05-05 13:30 47.49844 7.47302 35872 ft 426 kts 279°
2026-05-05 13:30 47.51254 7.38791 35868 ft 426 kts 279°
2026-05-05 13:31 47.52655 7.30302 35860 ft 426 kts 279°
2026-05-05 13:31 47.54056 7.21779 35870 ft 427 kts 279°
2026-05-05 13:32 47.55451 7.13248 35862 ft 427 kts 279°
2026-05-05 13:32 47.56841 7.04716 35871 ft 427 kts 279°
2026-05-05 13:33 47.58231 6.96149 35878 ft 428 kts 279°
2026-05-05 13:33 47.59611 6.87589 35875 ft 429 kts 279°
2026-05-05 13:34 47.60983 6.79037 35878 ft 430 kts 279°
2026-05-05 13:34 47.62350 6.70479 36044 ft 430 kts 279°
2026-05-05 13:35 47.63715 6.61908 35961 ft 429 kts 279°
2026-05-05 13:35 47.65074 6.53321 35903 ft 430 kts 279°
2026-05-05 13:36 47.66431 6.44718 35890 ft 430 kts 279°
2026-05-05 13:36 47.67783 6.36080 35881 ft 431 kts 279°
2026-05-05 13:37 47.69242 6.27448 35882 ft 433 kts 283°
2026-05-05 13:37 47.71034 6.18914 35872 ft 434 kts 283°
2026-05-05 13:38 47.72848 6.10391 35882 ft 434 kts 283°
2026-05-05 13:38 47.74663 6.01814 35870 ft 435 kts 283°
2026-05-05 13:39 47.76471 5.93230 35869 ft 435 kts 284°
2026-05-05 13:39 47.78267 5.84662 35857 ft 436 kts 284°
2026-05-05 13:40 47.80066 5.76055 35842 ft 436 kts 284°
2026-05-05 13:40 47.81854 5.67460 35865 ft 437 kts 284°
2026-05-05 13:41 47.83650 5.58803 35862 ft 437 kts 284°
2026-05-05 13:41 47.85434 5.50176 35872 ft 437 kts 284°
2026-05-05 13:42 47.87202 5.41571 35869 ft 438 kts 284°
2026-05-05 13:42 47.89118 5.32941 35860 ft 440 kts 289°
2026-05-05 13:43 47.91799 5.24696 35852 ft 441 kts 297°
2026-05-05 13:43 47.95240 5.17233 35871 ft 434 kts 307°
2026-05-05 13:44 47.99202 5.10535 35852 ft 433 kts 310°
2026-05-05 13:44 48.03263 5.03908 35840 ft 433 kts 310°
2026-05-05 13:45 48.07326 4.97223 35856 ft 433 kts 310°
2026-05-05 13:45 48.11297 4.90655 35850 ft 434 kts 310°
2026-05-05 13:46 48.15343 4.83981 35847 ft 434 kts 310°
2026-05-05 13:46 48.19384 4.77267 35840 ft 434 kts 310°
2026-05-05 13:47 48.23414 4.70542 35840 ft 434 kts 310°
2026-05-05 13:47 48.27450 4.63781 35831 ft 434 kts 310°
2026-05-05 13:48 48.31455 4.57039 35829 ft 434 kts 310°
2026-05-05 13:48 48.35461 4.50273 35830 ft 434 kts 310°
2026-05-05 13:49 48.39454 4.43522 35840 ft 434 kts 310°
2026-05-05 13:49 48.43449 4.36751 35812 ft 435 kts 310°
2026-05-05 13:50 48.47485 4.29881 35826 ft 435 kts 309°
2026-05-05 13:50 48.51458 4.23092 35820 ft 435 kts 309°
2026-05-05 13:51 48.55456 4.16259 35840 ft 435 kts 309°
2026-05-05 13:51 48.59464 4.09399 35831 ft 435 kts 310°
2026-05-05 13:52 48.63448 4.02566 35824 ft 435 kts 310°
2026-05-05 13:52 48.67446 3.95694 35831 ft 435 kts 310°
2026-05-05 13:53 48.71422 3.88841 35837 ft 435 kts 310°
2026-05-05 13:53 48.75635 3.82265 35820 ft 436 kts 314°
2026-05-05 13:54 48.79973 3.75825 35832 ft 436 kts 314°
2026-05-05 13:54 48.84304 3.69383 35813 ft 436 kts 314°
2026-05-05 13:55 48.88599 3.62969 35816 ft 437 kts 314°
2026-05-05 13:55 48.92953 3.56445 35816 ft 438 kts 315°
2026-05-05 13:56 48.97255 3.49981 35821 ft 438 kts 315°
2026-05-05 13:56 49.01595 3.43446 35815 ft 437 kts 315°
2026-05-05 13:57 49.05877 3.36980 35813 ft 437 kts 315°
2026-05-05 13:57 49.10189 3.30439 35810 ft 437 kts 314°
2026-05-05 13:58 49.14518 3.23881 35810 ft 437 kts 314°
2026-05-05 13:58 49.18815 3.17362 35815 ft 437 kts 314°
2026-05-05 13:59 49.25248 3.07549 35815 ft 436 kts 314°
2026-05-05 14:00 49.31696 2.97666 35823 ft 436 kts 314°
2026-05-05 14:00 49.35944 2.91133 35819 ft 436 kts 314°
2026-05-05 14:01 49.40227 2.84535 35828 ft 436 kts 314°
2026-05-05 14:01 49.44481 2.77961 35835 ft 436 kts 314°
2026-05-05 14:02 49.48745 2.71356 35832 ft 436 kts 314°
2026-05-05 14:02 49.53007 2.64739 35828 ft 435 kts 314°
2026-05-05 14:03 49.57241 2.58146 35839 ft 435 kts 313°
2026-05-05 14:03 49.61430 2.51379 35836 ft 434 kts 310°
2026-05-05 14:04 49.65321 2.44336 35837 ft 434 kts 309°
2026-05-05 14:04 49.69204 2.37240 35844 ft 434 kts 309°
2026-05-05 14:05 49.73110 2.30092 35848 ft 433 kts 308°
2026-05-05 14:05 49.76991 2.22971 35855 ft 433 kts 308°
2026-05-05 14:06 49.80867 2.15862 35858 ft 433 kts 308°
2026-05-05 14:06 49.84740 2.08744 35862 ft 433 kts 308°
2026-05-05 14:07 49.88591 2.01647 35857 ft 432 kts 308°
2026-05-05 14:07 49.92465 1.94494 35865 ft 432 kts 308°
2026-05-05 14:08 49.96312 1.87375 35867 ft 432 kts 308°
2026-05-05 14:08 50.00152 1.80255 35869 ft 432 kts 308°
2026-05-05 14:09 50.03998 1.73095 35874 ft 431 kts 308°
2026-05-05 14:09 50.08004 1.66194 35875 ft 432 kts 315°
2026-05-05 14:10 50.12490 1.59931 35880 ft 432 kts 318°
2026-05-05 14:10 50.17013 1.53861 35450 ft 436 kts 318°
2026-05-05 14:11 50.19311 1.50753 34630 ft 445 kts 318°
2026-05-05 14:11 50.21656 1.47566 33818 ft 449 kts 318°
2026-05-05 14:11 50.24005 1.44365 33122 ft 450 kts 318°
2026-05-05 14:11 50.26364 1.41145 32411 ft 451 kts 318°
2026-05-05 14:12 50.28687 1.37967 31683 ft 452 kts 318°
2026-05-05 14:12 50.31051 1.34728 30930 ft 454 kts 317°
2026-05-05 14:12 50.33419 1.31471 30134 ft 455 kts 318°
2026-05-05 14:12 50.35790 1.28201 29370 ft 455 kts 317°
2026-05-05 14:13 50.38154 1.24943 28631 ft 454 kts 318°
2026-05-05 14:13 50.40512 1.21693 27861 ft 454 kts 318°
2026-05-05 14:13 50.42865 1.18448 27118 ft 452 kts 318°
2026-05-05 14:13 50.45189 1.15244 26581 ft 446 kts 318°
2026-05-05 14:14 50.47503 1.12046 26054 ft 440 kts 318°
2026-05-05 14:14 50.49771 1.08906 25506 ft 434 kts 318°
2026-05-05 14:14 50.51957 1.05699 24950 ft 429 kts 314°
2026-05-05 14:14 50.54010 1.02320 24401 ft 424 kts 313°
2026-05-05 14:15 50.56011 0.98941 23858 ft 420 kts 313°
2026-05-05 14:15 50.57972 0.95614 23340 ft 415 kts 313°
2026-05-05 14:15 50.59904 0.92339 22806 ft 411 kts 313°
2026-05-05 14:15 50.61836 0.89071 22408 ft 404 kts 313°
2026-05-05 14:16 50.63730 0.85864 22005 ft 398 kts 313°
2026-05-05 14:16 50.65579 0.82729 21617 ft 391 kts 313°
2026-05-05 14:16 50.67419 0.79579 21253 ft 384 kts 311°
2026-05-05 14:16 50.69107 0.76380 20867 ft 379 kts 309°
2026-05-05 14:17 50.70739 0.73173 20472 ft 373 kts 309°
2026-05-05 14:17 50.72338 0.70016 20102 ft 368 kts 309°
2026-05-05 14:17 50.73909 0.66918 19726 ft 363 kts 309°
2026-05-05 14:17 50.75494 0.63804 19357 ft 358 kts 310°
2026-05-05 14:18 50.77020 0.60808 19000 ft 353 kts 310°
2026-05-05 14:18 50.78543 0.57814 18643 ft 347 kts 310°
2026-05-05 14:18 50.80057 0.54834 18291 ft 342 kts 310°
2026-05-05 14:18 50.81520 0.51952 17833 ft 336 kts 310°
2026-05-05 14:19 50.82959 0.49111 17281 ft 326 kts 310°
2026-05-05 14:19 50.84346 0.46367 16744 ft 317 kts 310°
2026-05-05 14:19 50.85703 0.43685 16125 ft 311 kts 310°
2026-05-05 14:19 50.87033 0.41055 15521 ft 305 kts 310°
2026-05-05 14:20 50.88336 0.38476 14933 ft 299 kts 311°
2026-05-05 14:20 50.89634 0.35907 14285 ft 296 kts 311°
2026-05-05 14:20 50.90909 0.33376 13631 ft 292 kts 310°
2026-05-05 14:20 50.92156 0.30887 13004 ft 289 kts 310°
2026-05-05 14:21 50.93388 0.28432 12405 ft 285 kts 310°
2026-05-05 14:21 50.94521 0.25904 11775 ft 283 kts 299°
2026-05-05 14:21 50.95303 0.23073 11174 ft 279 kts 292°
2026-05-05 14:21 50.95920 0.20205 10591 ft 276 kts 287°
2026-05-05 14:22 50.96440 0.17282 9947 ft 273 kts 286°
2026-05-05 14:22 50.96928 0.14419 9342 ft 270 kts 286°
2026-05-05 14:22 50.97406 0.11567 8738 ft 266 kts 286°
2026-05-05 14:22 50.97866 0.08766 8142 ft 264 kts 286°
2026-05-05 14:23 50.98318 0.05969 7548 ft 261 kts 286°
2026-05-05 14:23 50.98753 0.03210 6966 ft 259 kts 286°
2026-05-05 14:23 50.99178 0.00473 6696 ft 251 kts 286°
2026-05-05 14:23 50.99589 -0.02208 6485 ft 244 kts 286°
2026-05-05 14:24 50.99979 -0.04799 6191 ft 242 kts 286°
2026-05-05 14:24 51.00365 -0.07419 5870 ft 242 kts 286°
2026-05-05 14:24 51.00738 -0.09985 5555 ft 241 kts 286°
2026-05-05 14:24 51.01115 -0.12594 5248 ft 240 kts 286°
2026-05-05 14:25 51.01485 -0.15154 4944 ft 239 kts 286°
2026-05-05 14:25 51.01856 -0.17705 4636 ft 238 kts 286°
2026-05-05 14:25 51.02224 -0.20244 4329 ft 238 kts 286°
2026-05-05 14:25 51.02594 -0.22812 4050 ft 235 kts 286°
2026-05-05 14:26 51.02953 -0.25331 3995 ft 236 kts 286°
2026-05-05 14:26 51.03315 -0.27866 3990 ft 237 kts 286°
2026-05-05 14:26 51.03682 -0.30436 3988 ft 237 kts 286°
2026-05-05 14:26 51.04046 -0.32998 3988 ft 237 kts 286°
2026-05-05 14:27 51.04408 -0.35553 3990 ft 237 kts 286°
2026-05-05 14:27 51.04768 -0.38103 3991 ft 237 kts 286°
2026-05-05 14:27 51.05129 -0.40652 3989 ft 237 kts 286°
2026-05-05 14:27 51.05487 -0.43183 3989 ft 236 kts 286°
2026-05-05 14:28 51.05848 -0.45743 3993 ft 236 kts 286°
2026-05-05 14:28 51.06204 -0.48268 3994 ft 236 kts 286°
2026-05-05 14:28 51.06555 -0.50775 3891 ft 229 kts 286°
2026-05-05 14:28 51.06897 -0.53236 3637 ft 227 kts 287°
2026-05-05 14:29 51.07476 -0.55505 3374 ft 218 kts 314°
2026-05-05 14:29 51.08662 -0.56817 3249 ft 201 kts 349°
2026-05-05 14:29 51.09978 -0.56716 3100 ft 188 kts 26°
2026-05-05 14:29 51.10898 -0.55338 3024 ft 187 kts 61°
2026-05-05 14:30 51.11372 -0.53388 3013 ft 194 kts 79°
2026-05-05 14:30 51.11229 -0.51258 3014 ft 198 kts 104°
2026-05-05 14:30 51.10955 -0.49089 3002 ft 197 kts 89°
2026-05-05 14:30 51.11010 -0.46936 2997 ft 195 kts 79°
2026-05-05 14:31 51.11256 -0.44848 2994 ft 194 kts 74°
2026-05-05 14:31 51.11574 -0.42762 2900 ft 194 kts 74°
2026-05-05 14:31 51.11881 -0.40675 2696 ft 192 kts 75°
2026-05-05 14:31 51.12159 -0.38642 2490 ft 184 kts 75°
2026-05-05 14:32 51.12421 -0.36683 2221 ft 180 kts 76°
2026-05-05 14:32 51.12675 -0.34769 1964 ft 176 kts 76°
2026-05-05 14:32 51.12920 -0.32922 1713 ft 163 kts 75°
2026-05-05 14:32 51.13145 -0.31256 1519 ft 146 kts 76°
2026-05-05 14:33 51.13348 -0.29750 1299 ft 131 kts 74°
2026-05-05 14:33 51.13539 -0.28351 1151 ft 129 kts 74°
2026-05-05 14:33 51.13728 -0.26963 997 ft 129 kts 76°
2026-05-05 14:33 51.13914 -0.25563 833 ft 128 kts 76°
2026-05-05 14:34 51.14117 -0.24173 665 ft 128 kts 77°
2026-05-05 14:34 51.14298 -0.22804 465 ft 129 kts 75°
2026-05-05 14:34 51.14490 -0.21404 309 ft 129 kts 76°
2026-05-05 14:34 51.14677 -0.20022 204 ft 120 kts 77°
2026-05-05 14:35 51.14823 -0.18982 201 ft 72 kts 78°
2026-05-05 14:35 51.14907 -0.18352 201 ft 50 kts 78°
2026-05-05 14:35 51.14973 -0.17976 202 ft 27 kts 63°
2026-05-05 14:35 51.15058 -0.17794 201 ft 13 kts 50°
2026-05-05 14:36 51.15131 -0.17761 201 ft 12 kts 350°
2026-05-05 14:36 51.15220 -0.17780 201 ft 13 kts 359°
2026-05-05 14:36 51.15267 -0.17671 201 ft 13 kts 78°
2026-05-05 14:36 51.15288 -0.17521 201 ft 14 kts 78°
2026-05-05 14:37 51.15317 -0.17376 201 ft 13 kts 37°
2026-05-05 14:37 51.15409 -0.17389 200 ft 14 kts 348°
2026-05-05 14:37 51.15510 -0.17425 199 ft 15 kts 347°
2026-05-05 14:37 51.15617 -0.17464 199 ft 16 kts 347°
2026-05-05 14:38 51.15726 -0.17502 198 ft 15 kts 353°
2026-05-05 14:38 51.15779 -0.17381 198 ft 15 kts 78°
2026-05-05 14:38 51.15799 -0.17232 199 ft 6 kts 79°
2026-05-05 14:38 51.15803 -0.17207 199 ft 1 kts 59°
2026-05-05 14:39 51.15815 -0.17202 199 ft 2 kts 353°
2026-05-05 14:39 51.15843 -0.17209 199 ft 5 kts 348°
2026-05-05 14:39 51.15889 -0.17226 198 ft 6 kts 347°
2026-05-05 14:39 51.15901 -0.17230 198 ft 0 kts 347°